Regional Weather Roundup
Issued by NWS

Home | Current Version | Previous Version | Text Only | Print | Product List | Glossary Off
Versions: 1 2 3 4 5 6 7 8 9 10 11 12 13 14 15 16 17 18 19 20 21 22 23 24 25 26 27 28 29 30 31 32 33 34 35 36 37 38 39 40 41 42 43 44 45 46 47 48 49 50

000
ASUS43 KLOT 251402
RWRIL

ILLINOIS REGIONAL WEATHER ROUNDUP
NATIONAL WEATHER SERVICE CHICAGO/ROMEOVILLE IL
900 AM CDT SAT APR 25 2015

NOTE: "FAIR" INDICATES FEW OR NO CLOUDS BELOW 12,000 FEET WITH NO
SIGNIFICANT WEATHER AND/OR OBSTRUCTIONS TO VISIBILITY.

* THESE STATIONS ARE NOT UNDER NWS QUALITY CONTROL. THEY ALSO MAY NOT
  REPORT WEATHER SUCH AS PRECIPITATION OR FOG.

ILZ001-002-007-009-015-016-024-251500-
NORTHWEST ILLINOIS

CITY           SKY/WX    TMP DP  RH WIND       PRES   REMARKS
MOLINE         LGT RAIN  44  41  89 E21       29.65F FOG
STERLING*      CLOUDY    43  39  87 E24G30    29.69F
$$

ILZ003-004-008-010-011-017-018-251500-
NORTH CENTRAL ILLINOIS

CITY           SKY/WX    TMP DP  RH WIND       PRES   REMARKS
ROCKFORD       CLOUDY    45  37  73 E15       29.78F
FREEPORT*      CLOUDY    43  37  80 E13       29.77F
$$

ILZ005-006-012>014-019>023-251500-
NORTHEAST ILLINOIS

CITY           SKY/WX    TMP DP  RH WIND       PRES   REMARKS
CHICAGO-OHARE  LGT RAIN  43  39  86 E14       29.78F
CHICAGO-MIDWAY LGT RAIN  45  40  82 E13       29.79F
AURORA         LGT RAIN  45  40  82 E16       29.74F
LANSING*       LGT RAIN  42  38  86 E14G21    29.78F
WAUKEGAN       CLOUDY    41  38  89 NE10      29.81F
DUPAGE AIRPORT LGT RAIN  43  40  89 E13       29.75F FOG
WHEELING       CLOUDY    43  37  79 E8        29.81F
NORTHERLY ISL    N/A     44  39  82 E12         N/A
$$

LMZ740>746-251500-
SOUTHERN LAKE MICHIGAN

STATION/POSITION SKY/WX   TEMP    WIND        PRES    VSBY  WAVE
                          AIR SEA DIR/SP/G                  HT/PER
                          (F)     (DEG/KT/KT) (MB)    (MI)  (FT/S)
HARRISON CRIB              41      90/ 17/ 19   N/A
BURNHAM HARBOR             44      90/ 11/ 17   N/A
CALUMET HARBOR             45     100/ 13/ 16   N/A
BURNS HARBOR               44     100/ 14/ 22 1009.5F
MICHIGAN CITY              44     100/ 16/ 24   N/A
MICHIGAN CITY 6N           45 44  130/ 16/ 21   N/A           3/ 4
$$

ILZ025>027-034>036-040-047-049-050-058-095>099-251500-
WEST-CENTRAL ILLINOIS

CITY           SKY/WX    TMP DP  RH WIND       PRES   REMARKS
QUINCY         LGT RAIN  50  49  96 E12       29.55F FOG
$$

ILZ028>032-037-038-041>044-048-051>054-059>061-251500-
CENTRAL ILLINOIS

CITY           SKY/WX    TMP DP  RH WIND       PRES   REMARKS
BLOOMINGTON    LGT RAIN  48  48 100 E17       29.64F FOG
DECATUR        CLOUDY    51  48  89 E15       29.61F
PEORIA         RAIN      48  45  89 E23       29.60F FOG
SPRINGFIELD    LGT RAIN  51  48  89 E10       29.59R FOG
TAYLORVILLE    NOT AVBL
$$

ILZ033-039-045-046-055>057-062-063-251500-
EAST-CENTRAL ILLINOIS

CITY           SKY/WX    TMP DP  RH WIND       PRES   REMARKS
CHAMPAIGN      LGT RAIN  49  48  97 E22       29.61F FOG
MATTOON        CLOUDY    50  48  93 SE15      29.60F FOG
$$

ILZ079-100>102-251500-
SOUTHWEST ILLINOIS

CITY           SKY/WX    TMP DP  RH WIND       PRES   REMARKS
ALTON          CLOUDY    55  55 100 S10       29.56S FOG
BELLEVILLE     CLOUDY    56  56 100 VRB7      29.55F
CAHOKIA*       CLOUDY    57  56  96 S7        29.56R FOG
SPARTA*        CLOUDY    55  55  99 SE7       29.58S FOG
$$

ILZ064>066-069>071-074>076-080>082-084>086-088>090-092>094-251500-
SOUTH-CENTRAL ILLINOIS

CITY           SKY/WX    TMP DP  RH WIND       PRES   REMARKS
CARBONDALE     CLOUDY    59  56  89 S10       29.59F
MARION         CLOUDY    59  57  94 S9        29.61F
MT. VERNON     CLOUDY    55  52  88 SE7       29.60F
SALEM*         CLOUDY    56  53  90 SE9       29.59F FOG
$$

ILZ067-068-072-073-078-083-087-091-251500-
SOUTHEAST ILLINOIS

CITY           SKY/WX    TMP DP  RH WIND       PRES   REMARKS
LAWRENCEVILLE  RAIN      51  50  96 SE8       29.66S FOG
HARRISBURG*    CLOUDY    58  56  95 S10       29.63F
ROBINSON*      RAIN      50  49  96 SE9       29.66S
$$

ABBREVIATIONS USED IN REMARKS
   TC - TEMPERATURE IN CELSIUS
  WCI - WIND CHILL INDEX
   HX - HEAT INDEX
  VSB - VISIBILITY
$$



USA.gov is the U.S. government's official web portal to all federal, state and local government web resources and services.